Time,TemperatureF,DewpointF,PressureIn,WindDirection,WindDirectionDegrees,WindSpeedMPH,WindSpeedGustMPH,Humidity,HourlyPrecipIn,Conditions,Clouds,dailyrainin,SoftwareType,DateUTC
2013-01-24 00:03:00,42.1,40.8,30.08,WSW,248,3.1,3.6,95,0.00,,,0.00,WUHU216HW,2013-01-24 08:03:00,
2013-01-24 00:08:00,42.1,40.8,30.09,SW,225,0.0,3.1,95,0.00,,,0.00,WUHU216HW,2013-01-24 08:08:00,
2013-01-24 00:13:00,42.1,40.8,30.09,SW,225,0.4,1.6,95,0.00,,,0.00,WUHU216HW,2013-01-24 08:13:00,
2013-01-24 00:18:00,42.1,40.8,30.08,SW,225,2.0,2.0,95,0.00,,,0.00,WUHU216HW,2013-01-24 08:18:00,
2013-01-24 00:23:00,42.1,40.8,30.09,SSE,158,0.9,3.4,95,0.00,,,0.00,WUHU216HW,2013-01-24 08:23:00,
2013-01-24 00:28:00,42.1,40.8,30.08,SW,225,3.8,3.8,95,0.00,,,0.00,WUHU216HW,2013-01-24 08:28:00,
2013-01-24 00:33:00,42.1,40.5,30.09,WNW,293,0.4,3.8,94,0.00,,,0.00,WUHU216HW,2013-01-24 08:33:00,
2013-01-24 00:38:00,42.1,40.5,30.09,SSW,203,1.1,3.1,94,0.00,,,0.00,WUHU216HW,2013-01-24 08:38:00,
2013-01-24 00:43:00,42.1,40.5,30.09,West,270,2.7,3.1,94,0.00,,,0.00,WUHU216HW,2013-01-24 08:43:00,
2013-01-24 00:48:00,42.1,40.5,30.10,SW,225,1.6,3.1,94,0.00,,,0.00,WUHU216HW,2013-01-24 08:48:00,
2013-01-24 00:53:00,42.1,40.5,30.09,SW,225,2.0,2.0,94,0.00,,,0.00,WUHU216HW,2013-01-24 08:53:00,
2013-01-24 00:58:00,42.1,40.5,30.10,West,270,0.7,2.0,94,0.00,,,0.00,WUHU216HW,2013-01-24 08:58:00,
2013-01-24 01:03:00,42.1,40.5,30.10,West,270,0.0,0.7,94,0.00,,,0.00,WUHU216HW,2013-01-24 09:03:00,
2013-01-24 01:08:00,42.1,40.5,30.11,WSW,248,0.4,2.0,94,0.00,,,0.00,WUHU216HW,2013-01-24 09:08:00,
2013-01-24 01:13:00,42.1,40.5,30.11,WSW,248,0.0,2.0,94,0.00,,,0.00,WUHU216HW,2013-01-24 09:13:00,
2013-01-24 01:18:00,42.1,40.5,30.11,WSW,248,1.3,2.5,94,0.00,,,0.00,WUHU216HW,2013-01-24 09:18:00,
2013-01-24 01:23:00,42.1,40.5,30.11,SW,225,2.2,2.5,94,0.00,,,0.00,WUHU216HW,2013-01-24 09:23:00,
2013-01-24 01:28:00,42.1,40.5,30.11,West,270,0.9,2.2,94,0.00,,,0.00,WUHU216HW,2013-01-24 09:28:00,
2013-01-24 01:33:00,41.9,40.3,30.11,WSW,248,0.9,2.2,94,0.00,,,0.00,WUHU216HW,2013-01-24 09:33:00,
2013-01-24 01:38:00,42.1,40.5,30.11,South,180,0.2,1.8,94,0.00,,,0.00,WUHU216HW,2013-01-24 09:38:00,
2013-01-24 01:43:00,41.9,40.3,30.11,SE,135,0.2,1.8,94,0.00,,,0.00,WUHU216HW,2013-01-24 09:43:00,
2013-01-24 01:48:00,41.9,40.3,30.12,West,270,0.2,0.9,94,0.00,,,0.00,WUHU216HW,2013-01-24 09:48:00,
2013-01-24 01:53:00,41.9,40.3,30.12,SSE,158,1.1,1.8,94,0.00,,,0.00,WUHU216HW,2013-01-24 09:53:00,
2013-01-24 01:58:00,41.9,40.3,30.12,East,90,0.0,1.8,94,0.00,,,0.00,WUHU216HW,2013-01-24 09:58:00,
2013-01-24 02:03:00,41.9,40.3,30.12,SSE,158,0.0,1.1,94,0.00,,,0.00,WUHU216HW,2013-01-24 10:03:00,
2013-01-24 02:08:00,41.8,40.1,30.12,ESE,113,0.0,1.8,94,0.00,,,0.00,WUHU216HW,2013-01-24 10:08:00,
2013-01-24 02:13:00,41.8,40.1,30.13,SSE,158,0.0,1.8,94,0.00,,,0.00,WUHU216HW,2013-01-24 10:13:00,
2013-01-24 02:18:00,41.8,40.1,30.13,WSW,248,0.4,1.1,94,0.00,,,0.00,WUHU216HW,2013-01-24 10:18:00,
2013-01-24 02:23:00,41.8,40.1,30.13,SE,135,0.4,1.1,94,0.00,,,0.00,WUHU216HW,2013-01-24 10:23:00,
2013-01-24 02:28:00,41.8,40.1,30.13,South,180,1.1,1.1,94,0.00,,,0.00,WUHU216HW,2013-01-24 10:28:00,
2013-01-24 02:33:00,41.8,40.1,30.13,WSW,248,0.9,2.0,94,0.00,,,0.00,WUHU216HW,2013-01-24 10:33:00,
2013-01-24 02:38:00,41.8,40.1,30.13,SE,135,0.9,2.0,94,0.00,,,0.00,WUHU216HW,2013-01-24 10:38:00,
2013-01-24 02:43:00,41.6,40.0,30.13,ESE,113,1.3,1.3,94,0.00,,,0.00,WUHU216HW,2013-01-24 10:43:00,
2013-01-24 02:48:00,41.6,40.0,30.13,SE,135,0.7,1.3,94,0.00,,,0.00,WUHU216HW,2013-01-24 10:48:00,
2013-01-24 02:53:00,41.6,40.0,30.13,SE,135,1.1,1.3,94,0.00,,,0.00,WUHU216HW,2013-01-24 10:53:00,
2013-01-24 02:58:00,41.6,40.0,30.13,South,180,0.0,1.1,94,0.00,,,0.00,WUHU216HW,2013-01-24 10:58:00,
2013-01-24 03:03:00,41.6,40.0,30.13,SSE,158,0.4,1.1,94,0.00,,,0.00,WUHU216HW,2013-01-24 11:03:00,
2013-01-24 03:08:00,41.6,40.0,30.14,SE,135,1.1,1.1,94,0.00,,,0.00,WUHU216HW,2013-01-24 11:08:00,
2013-01-24 03:13:00,41.6,40.0,30.14,SSE,158,1.1,1.1,94,0.00,,,0.00,WUHU216HW,2013-01-24 11:13:00,
2013-01-24 03:18:00,41.6,40.0,30.14,SSE,158,0.4,1.1,94,0.00,,,0.00,WUHU216HW,2013-01-24 11:18:00,
2013-01-24 03:23:00,41.6,40.0,30.14,SSE,158,0.7,1.1,94,0.00,,,0.00,WUHU216HW,2013-01-24 11:23:00,
2013-01-24 03:28:00,41.6,40.0,30.14,SE,135,0.4,0.7,94,0.00,,,0.00,WUHU216HW,2013-01-24 11:28:00,
2013-01-24 03:33:00,41.6,40.0,30.14,ESE,113,0.0,0.7,94,0.00,,,0.00,WUHU216HW,2013-01-24 11:33:00,
2013-01-24 03:38:00,41.6,40.0,30.14,SE,135,1.6,1.6,94,0.00,,,0.00,WUHU216HW,2013-01-24 11:38:00,
2013-01-24 03:43:00,41.4,39.8,30.13,SSE,158,1.1,1.6,94,0.00,,,0.00,WUHU216HW,2013-01-24 11:43:00,
2013-01-24 03:48:00,41.4,39.8,30.14,SE,135,0.9,1.1,94,0.00,,,0.00,WUHU216HW,2013-01-24 11:48:00,
2013-01-24 03:53:00,41.4,39.8,30.14,South,180,0.7,1.8,94,0.00,,,0.00,WUHU216HW,2013-01-24 11:53:00,
2013-01-24 03:58:00,41.4,39.8,30.14,South,180,0.0,1.8,94,0.00,,,0.00,WUHU216HW,2013-01-24 11:58:00,
2013-01-24 04:03:00,41.4,39.8,30.14,ESE,113,0.7,1.8,94,0.00,,,0.00,WUHU216HW,2013-01-24 12:03:00,
2013-01-24 04:08:00,41.4,39.8,30.14,SSE,158,0.4,1.6,94,0.00,,,0.00,WUHU216HW,2013-01-24 12:08:00,
2013-01-24 04:13:00,41.4,39.8,30.13,SSE,158,0.0,1.6,94,0.00,,,0.00,WUHU216HW,2013-01-24 12:13:00,
2013-01-24 04:18:00,41.4,39.8,30.13,SE,135,0.0,1.1,94,0.00,,,0.00,WUHU216HW,2013-01-24 12:18:00,
2013-01-24 04:23:00,41.4,39.8,30.13,SSE,158,0.4,0.7,94,0.00,,,0.00,WUHU216HW,2013-01-24 12:23:00,
2013-01-24 04:28:00,41.4,39.8,30.13,South,180,0.2,2.0,94,0.00,,,0.00,WUHU216HW,2013-01-24 12:28:00,
2013-01-24 04:33:00,41.2,39.6,30.13,SSE,158,0.7,2.0,94,0.00,,,0.00,WUHU216HW,2013-01-24 12:33:00,
2013-01-24 04:38:00,41.2,39.6,30.13,South,180,0.4,1.1,94,0.00,,,0.00,WUHU216HW,2013-01-24 12:38:00,
2013-01-24 04:43:00,41.2,39.6,30.13,ESE,113,0.2,1.1,94,0.00,,,0.00,WUHU216HW,2013-01-24 12:43:00,
2013-01-24 04:48:00,41.2,39.6,30.13,WSW,248,1.1,1.1,94,0.00,,,0.00,WUHU216HW,2013-01-24 12:48:00,
2013-01-24 04:53:00,41.2,39.6,30.13,WSW,248,1.1,1.1,94,0.00,,,0.00,WUHU216HW,2013-01-24 12:53:00,
2013-01-24 04:58:00,41.2,39.6,30.13,WSW,248,0.4,1.8,94,0.00,,,0.00,WUHU216HW,2013-01-24 12:58:00,
2013-01-24 05:03:00,41.0,39.4,30.13,SSW,203,0.2,1.8,94,0.00,,,0.00,WUHU216HW,2013-01-24 13:03:00,
2013-01-24 05:08:00,41.2,39.6,30.14,SSW,203,0.2,0.4,94,0.00,,,0.00,WUHU216HW,2013-01-24 13:08:00,
2013-01-24 05:13:00,41.0,39.4,30.13,WSW,248,0.0,1.3,94,0.00,,,0.00,WUHU216HW,2013-01-24 13:13:00,
2013-01-24 05:18:00,41.0,39.4,30.14,WSW,248,0.4,1.3,94,0.00,,,0.00,WUHU216HW,2013-01-24 13:18:00,
2013-01-24 05:23:00,41.0,39.4,30.14,WSW,248,0.0,0.4,94,0.00,,,0.00,WUHU216HW,2013-01-24 13:23:00,
2013-01-24 05:28:00,41.0,39.4,30.14,WSW,248,0.0,0.2,94,0.00,,,0.00,WUHU216HW,2013-01-24 13:28:00,
2013-01-24 05:33:00,41.0,39.4,30.14,NW,315,0.0,0.4,94,0.00,,,0.00,WUHU216HW,2013-01-24 13:33:00,
2013-01-24 05:38:00,41.0,39.4,30.15,WSW,248,0.0,0.4,94,0.00,,,0.00,WUHU216HW,2013-01-24 13:38:00,
2013-01-24 05:43:00,41.0,39.4,30.15,WSW,248,0.0,0.2,94,0.00,,,0.00,WUHU216HW,2013-01-24 13:43:00,
2013-01-24 05:48:00,41.0,39.4,30.15,NW,315,0.7,1.1,94,0.00,,,0.00,WUHU216HW,2013-01-24 13:48:00,
2013-01-24 05:53:00,40.9,39.2,30.15,SSE,158,0.0,1.3,94,0.00,,,0.00,WUHU216HW,2013-01-24 13:53:00,
2013-01-24 05:58:00,40.9,39.2,30.15,SE,135,0.7,1.3,94,0.00,,,0.00,WUHU216HW,2013-01-24 13:58:00,
2013-01-24 06:03:00,40.9,39.2,30.15,SSE,158,0.4,0.9,94,0.00,,,0.00,WUHU216HW,2013-01-24 14:03:00,
2013-01-24 06:08:00,40.9,39.2,30.15,SSW,203,0.0,0.7,94,0.00,,,0.00,WUHU216HW,2013-01-24 14:08:00,
2013-01-24 06:13:00,40.9,39.2,30.15,SSE,158,0.4,1.1,94,0.00,,,0.00,WUHU216HW,2013-01-24 14:13:00,
2013-01-24 06:18:00,40.9,39.2,30.15,SE,135,0.9,1.1,94,0.00,,,0.00,WUHU216HW,2013-01-24 14:18:00,
2013-01-24 06:23:00,40.9,39.2,30.15,SSE,158,0.2,1.3,94,0.00,,,0.00,WUHU216HW,2013-01-24 14:23:00,
2013-01-24 06:28:00,40.7,38.8,30.15,SSW,203,0.2,1.3,93,0.00,,,0.00,WUHU216HW,2013-01-24 14:28:00,
2013-01-24 06:33:00,40.7,38.8,30.15,SE,135,0.7,0.9,93,0.00,,,0.00,WUHU216HW,2013-01-24 14:33:00,
2013-01-24 06:38:00,40.7,38.8,30.14,SSE,158,0.4,0.9,93,0.00,,,0.00,WUHU216HW,2013-01-24 14:38:00,
2013-01-24 06:43:00,40.7,38.8,30.14,SSE,158,0.0,0.9,93,0.00,,,0.00,WUHU216HW,2013-01-24 14:43:00,
2013-01-24 06:48:00,40.7,38.8,30.14,SSE,158,0.4,0.9,93,0.00,,,0.00,WUHU216HW,2013-01-24 14:48:00,
2013-01-24 06:53:00,40.7,38.8,30.14,SE,135,0.0,0.9,93,0.00,,,0.00,WUHU216HW,2013-01-24 14:53:00,
2013-01-24 06:58:00,40.7,38.8,30.14,SE,135,0.7,0.9,93,0.00,,,0.00,WUHU216HW,2013-01-24 14:58:00,
2013-01-24 07:03:00,40.7,38.8,30.14,SE,135,0.4,0.7,93,0.00,,,0.00,WUHU216HW,2013-01-24 15:03:00,
2013-01-24 07:08:00,40.7,38.8,30.14,SSE,158,0.2,1.1,93,0.00,,,0.00,WUHU216HW,2013-01-24 15:08:00,
2013-01-24 07:13:00,40.7,38.8,30.14,South,180,0.9,1.1,93,0.00,,,0.00,WUHU216HW,2013-01-24 15:13:00,
2013-01-24 07:18:00,40.7,38.8,30.14,South,180,0.7,1.6,93,0.00,,,0.00,WUHU216HW,2013-01-24 15:18:00,
2013-01-24 07:23:00,40.7,38.8,30.14,ESE,113,0.0,1.6,93,0.00,,,0.00,WUHU216HW,2013-01-24 15:23:00,
2013-01-24 07:28:00,40.7,38.8,30.14,SE,135,0.0,1.1,93,0.00,,,0.00,WUHU216HW,2013-01-24 15:28:00,
2013-01-24 07:33:00,40.7,38.8,30.14,ESE,113,0.2,0.7,93,0.00,,,0.00,WUHU216HW,2013-01-24 15:33:00,
2013-01-24 07:38:00,40.7,38.8,30.14,SE,135,0.0,0.4,93,0.00,,,0.00,WUHU216HW,2013-01-24 15:38:00,
2013-01-24 07:43:00,40.5,38.6,30.14,SE,135,0.0,0.4,93,0.00,,,0.00,WUHU216HW,2013-01-24 15:43:00,
2013-01-24 07:48:00,40.5,38.6,30.14,SSE,158,0.7,0.7,93,0.00,,,0.00,WUHU216HW,2013-01-24 15:48:00,
2013-01-24 07:53:00,40.5,38.6,30.14,South,180,0.2,0.7,93,0.00,,,0.00,WUHU216HW,2013-01-24 15:53:00,
2013-01-24 07:58:00,40.5,38.6,30.14,SSE,158,0.0,0.4,93,0.00,,,0.00,WUHU216HW,2013-01-24 15:58:00,
2013-01-24 08:03:00,40.5,38.6,30.14,SE,135,0.0,0.4,93,0.00,,,0.00,WUHU216HW,2013-01-24 16:03:00,
2013-01-24 08:08:00,40.5,38.6,30.14,SE,135,0.0,0.0,93,0.00,,,0.00,WUHU216HW,2013-01-24 16:08:00,
2013-01-24 08:13:00,40.5,38.6,30.15,SE,135,0.2,0.7,93,0.00,,,0.00,WUHU216HW,2013-01-24 16:13:00,
2013-01-24 08:18:00,40.5,38.6,30.14,South,180,0.2,0.7,93,0.00,,,0.00,WUHU216HW,2013-01-24 16:18:00,
2013-01-24 08:23:00,40.7,38.8,30.14,South,180,0.0,0.4,93,0.01,,,0.00,WUHU216HW,2013-01-24 16:23:00,
2013-01-24 08:28:00,40.7,38.8,30.13,SSW,203,0.0,0.9,93,0.01,,,0.00,WUHU216HW,2013-01-24 16:28:00,
2013-01-24 08:33:00,40.7,38.8,30.13,SSE,158,0.4,0.9,93,0.01,,,0.00,WUHU216HW,2013-01-24 16:33:00,
2013-01-24 08:38:00,40.7,38.8,30.13,SSW,203,1.3,1.3,93,0.01,,,0.00,WUHU216HW,2013-01-24 16:38:00,
2013-01-24 08:43:00,40.7,38.8,30.13,SE,135,0.0,1.3,93,0.01,,,0.00,WUHU216HW,2013-01-24 16:43:00,
2013-01-24 08:48:00,40.9,39.0,30.13,SE,135,0.0,1.6,93,0.01,,,0.00,WUHU216HW,2013-01-24 16:48:00,
2013-01-24 08:53:00,40.7,38.8,30.13,SSW,203,0.4,1.6,93,0.01,,,0.00,WUHU216HW,2013-01-24 16:53:00,
2013-01-24 08:58:00,40.9,39.0,30.13,West,270,0.9,0.9,93,0.01,,,0.00,WUHU216HW,2013-01-24 16:58:00,
2013-01-24 09:03:00,40.9,39.0,30.13,WSW,248,1.6,1.6,93,0.01,,,0.00,WUHU216HW,2013-01-24 17:03:00,
2013-01-24 09:08:00,41.0,39.2,30.13,WSW,248,0.7,1.6,93,0.01,,,0.00,WUHU216HW,2013-01-24 17:08:00,
2013-01-24 09:13:00,41.0,39.2,30.13,WSW,248,0.0,1.3,93,0.00,,,0.00,WUHU216HW,2013-01-24 17:13:00,
2013-01-24 09:18:00,41.0,39.2,30.13,SSW,203,0.0,1.8,93,0.00,,,0.00,WUHU216HW,2013-01-24 17:18:00,
2013-01-24 09:23:00,41.0,38.9,30.13,WSW,248,0.2,1.8,92,0.00,,,0.00,WUHU216HW,2013-01-24 17:23:00,
2013-01-24 09:28:00,41.0,38.9,30.13,WSW,248,1.3,1.8,92,0.00,,,0.00,WUHU216HW,2013-01-24 17:28:00,
2013-01-24 09:33:00,41.2,39.1,30.13,WSW,248,0.9,1.6,92,0.00,,,0.00,WUHU216HW,2013-01-24 17:33:00,
2013-01-24 09:38:00,41.2,39.1,30.13,WSW,248,0.7,1.8,92,0.00,,,0.00,WUHU216HW,2013-01-24 17:38:00,
2013-01-24 09:43:00,41.4,39.2,30.13,SSW,203,0.4,1.8,92,0.00,,,0.00,WUHU216HW,2013-01-24 17:43:00,
2013-01-24 09:48:00,41.4,39.2,30.13,South,180,0.0,1.3,92,0.00,,,0.00,WUHU216HW,2013-01-24 17:48:00,
2013-01-24 09:53:00,41.6,39.4,30.13,SSW,203,0.7,1.8,92,0.00,,,0.00,WUHU216HW,2013-01-24 17:53:00,
2013-01-24 09:58:00,41.8,39.6,30.13,SW,225,0.4,1.8,92,0.00,,,0.00,WUHU216HW,2013-01-24 17:58:00,
2013-01-24 10:03:00,41.9,39.8,30.13,South,180,0.2,1.3,92,0.00,,,0.00,WUHU216HW,2013-01-24 18:03:00,
2013-01-24 10:08:00,42.1,39.7,30.12,South,180,0.9,0.9,91,0.00,,,0.00,WUHU216HW,2013-01-24 18:08:00,
2013-01-24 10:13:00,42.1,39.7,30.12,South,180,0.0,0.9,91,0.00,,,0.00,WUHU216HW,2013-01-24 18:13:00,
2013-01-24 10:18:00,42.3,39.9,30.12,SW,225,0.2,1.8,91,0.00,,,0.00,WUHU216HW,2013-01-24 18:18:00,
2013-01-24 10:23:00,42.5,40.1,30.11,ESE,113,0.7,1.8,91,0.00,,,0.00,WUHU216HW,2013-01-24 18:23:00,
2013-01-24 10:28:00,42.7,40.0,30.11,SSW,203,1.3,1.3,90,0.00,,,0.00,WUHU216HW,2013-01-24 18:28:00,
2013-01-24 10:33:00,42.7,40.0,30.11,West,270,0.2,1.3,90,0.00,,,0.00,WUHU216HW,2013-01-24 18:33:00,
2013-01-24 10:38:00,42.8,40.1,30.12,SW,225,0.7,0.7,90,0.00,,,0.00,WUHU216HW,2013-01-24 18:38:00,
2013-01-24 10:43:00,42.8,39.9,30.12,WSW,248,0.4,2.5,89,0.00,,,0.00,WUHU216HW,2013-01-24 18:43:00,
2013-01-24 10:48:00,42.8,39.9,30.12,South,180,0.2,2.5,89,0.00,,,0.00,WUHU216HW,2013-01-24 18:48:00,
2013-01-24 10:53:00,43.0,39.1,30.11,West,270,0.4,1.6,86,0.00,,,0.00,WUHU216HW,2013-01-24 18:53:00,
2013-01-24 10:58:00,43.2,39.6,30.11,SW,225,1.6,1.6,87,0.00,,,0.00,WUHU216HW,2013-01-24 18:58:00,
2013-01-24 11:03:00,43.4,40.4,30.11,West,270,1.1,1.6,89,0.00,,,0.00,WUHU216HW,2013-01-24 19:03:00,
2013-01-24 11:08:00,43.6,40.6,30.11,South,180,0.4,1.3,89,0.00,,,0.00,WUHU216HW,2013-01-24 19:08:00,
2013-01-24 11:13:00,43.7,40.8,30.11,South,180,0.7,0.9,89,0.00,,,0.00,WUHU216HW,2013-01-24 19:13:00,
2013-01-24 11:18:00,43.9,40.3,30.11,WSW,248,1.3,1.8,87,0.00,,,0.00,WUHU216HW,2013-01-24 19:18:00,
2013-01-24 11:23:00,43.9,40.6,30.10,WSW,248,0.0,1.8,88,0.00,,,0.00,WUHU216HW,2013-01-24 19:23:00,
2013-01-24 11:28:00,44.3,41.0,30.10,WSW,248,0.0,1.1,88,0.00,,,0.00,WUHU216HW,2013-01-24 19:28:00,
2013-01-24 11:33:00,44.3,41.0,30.10,ESE,113,0.7,0.7,88,0.00,,,0.00,WUHU216HW,2013-01-24 19:33:00,
2013-01-24 11:38:00,44.3,41.0,30.10,ESE,113,1.1,1.1,88,0.00,,,0.00,WUHU216HW,2013-01-24 19:38:00,
2013-01-24 11:43:00,44.1,40.5,30.10,SSE,158,0.0,1.8,87,0.00,,,0.00,WUHU216HW,2013-01-24 19:43:00,
2013-01-24 11:48:00,44.3,40.7,30.10,South,180,0.2,1.8,87,0.00,,,0.00,WUHU216HW,2013-01-24 19:48:00,
2013-01-24 11:53:00,44.3,40.7,30.09,ESE,113,0.4,0.9,87,0.00,,,0.00,WUHU216HW,2013-01-24 19:53:00,
2013-01-24 11:58:00,44.1,40.5,30.09,East,90,0.0,0.9,87,0.00,,,0.00,WUHU216HW,2013-01-24 19:58:00,
2013-01-24 12:03:00,44.1,40.5,30.09,ESE,113,0.0,0.4,87,0.00,,,0.00,WUHU216HW,2013-01-24 20:03:00,
2013-01-24 12:08:00,44.1,40.5,30.08,SE,135,0.4,0.4,87,0.00,,,0.00,WUHU216HW,2013-01-24 20:08:00,
2013-01-24 12:13:00,44.1,40.5,30.08,SE,135,0.0,0.7,87,0.00,,,0.00,WUHU216HW,2013-01-24 20:13:00,
2013-01-24 12:18:00,44.1,40.5,30.08,ESE,113,0.0,0.7,87,0.00,,,0.00,WUHU216HW,2013-01-24 20:18:00,
2013-01-24 12:23:00,44.3,40.7,30.08,SE,135,0.9,0.9,87,0.00,,,0.00,WUHU216HW,2013-01-24 20:23:00,
2013-01-24 12:28:00,44.3,40.7,30.08,SW,225,1.3,1.3,87,0.00,,,0.00,WUHU216HW,2013-01-24 20:28:00,
2013-01-24 12:33:00,44.3,40.7,30.07,SSE,158,0.2,1.3,87,0.00,,,0.00,WUHU216HW,2013-01-24 20:33:00,
2013-01-24 12:38:00,44.6,41.1,30.07,SE,135,0.4,1.1,87,0.00,,,0.00,WUHU216HW,2013-01-24 20:38:00,
2013-01-24 12:43:00,44.6,41.1,30.07,SE,135,1.1,1.1,87,0.00,,,0.00,WUHU216HW,2013-01-24 20:43:00,
2013-01-24 12:48:00,45.0,41.4,30.07,South,180,0.7,1.1,87,0.00,,,0.00,WUHU216HW,2013-01-24 20:48:00,
2013-01-24 12:53:00,45.0,41.0,30.07,SSE,158,1.1,1.1,86,0.00,,,0.00,WUHU216HW,2013-01-24 20:53:00,
2013-01-24 12:58:00,45.2,41.0,30.06,South,180,1.1,1.3,85,0.00,,,0.00,WUHU216HW,2013-01-24 20:58:00,
2013-01-24 13:03:00,45.2,41.0,30.06,SSW,203,0.7,1.3,85,0.00,,,0.00,WUHU216HW,2013-01-24 21:03:00,
2013-01-24 13:08:00,45.0,40.8,30.07,WSW,248,0.4,1.6,85,0.00,,,0.00,WUHU216HW,2013-01-24 21:08:00,
2013-01-24 13:13:00,45.2,41.0,30.06,SW,225,0.4,1.6,85,0.00,,,0.00,WUHU216HW,2013-01-24 21:13:00,
2013-01-24 13:18:00,45.0,40.8,30.06,SE,135,1.1,2.0,85,0.00,,,0.00,WUHU216HW,2013-01-24 21:18:00,
2013-01-24 13:23:00,45.0,40.8,30.05,SSE,158,0.0,2.0,85,0.00,,,0.00,WUHU216HW,2013-01-24 21:23:00,
2013-01-24 13:28:00,45.0,40.1,30.05,East,90,0.4,1.1,83,0.00,,,0.00,WUHU216HW,2013-01-24 21:28:00,
2013-01-24 13:33:00,45.0,40.1,30.05,South,180,0.4,0.7,83,0.00,,,0.00,WUHU216HW,2013-01-24 21:33:00,
2013-01-24 13:38:00,45.0,40.5,30.04,SW,225,0.0,1.1,84,0.00,,,0.00,WUHU216HW,2013-01-24 21:38:00,
2013-01-24 13:43:00,44.8,40.3,30.04,ESE,113,0.0,1.1,84,0.00,,,0.00,WUHU216HW,2013-01-24 21:43:00,
2013-01-24 13:48:00,44.8,40.0,30.04,East,90,0.0,1.1,83,0.00,,,0.00,WUHU216HW,2013-01-24 21:48:00,
2013-01-24 13:53:00,44.6,39.5,30.04,East,90,0.7,1.1,82,0.00,,,0.00,WUHU216HW,2013-01-24 21:53:00,
2013-01-24 13:58:00,44.6,39.8,30.04,SSE,158,0.0,1.1,83,0.00,,,0.00,WUHU216HW,2013-01-24 21:58:00,
2013-01-24 14:03:00,44.6,39.8,30.04,SSE,158,0.0,1.1,83,0.00,,,0.00,WUHU216HW,2013-01-24 22:03:00,
2013-01-24 14:08:00,44.6,39.8,30.04,SE,135,0.0,0.9,83,0.00,,,0.00,WUHU216HW,2013-01-24 22:08:00,
2013-01-24 14:13:00,44.6,39.8,30.04,SSE,158,1.8,1.8,83,0.00,,,0.00,WUHU216HW,2013-01-24 22:13:00,
2013-01-24 14:18:00,44.6,40.2,30.04,SSE,158,0.2,1.8,84,0.00,,,0.00,WUHU216HW,2013-01-24 22:18:00,
2013-01-24 14:23:00,44.8,40.0,30.03,SSE,158,0.0,0.4,83,0.00,,,0.00,WUHU216HW,2013-01-24 22:23:00,
2013-01-24 14:28:00,44.8,40.3,30.03,SE,135,0.4,1.3,84,0.00,,,0.00,WUHU216HW,2013-01-24 22:28:00,
2013-01-24 14:33:00,45.0,40.1,30.03,SSW,203,1.3,1.3,83,0.00,,,0.00,WUHU216HW,2013-01-24 22:33:00,
2013-01-24 14:38:00,45.0,40.1,30.03,SSW,203,1.6,1.6,83,0.00,,,0.00,WUHU216HW,2013-01-24 22:38:00,
2013-01-24 14:43:00,44.8,40.0,30.03,SW,225,0.0,1.6,83,0.00,,,0.00,WUHU216HW,2013-01-24 22:43:00,
2013-01-24 14:48:00,44.8,40.0,30.02,SSE,158,0.4,1.6,83,0.00,,,0.00,WUHU216HW,2013-01-24 22:48:00,
2013-01-24 14:53:00,44.8,40.0,30.02,SSW,203,0.0,0.9,83,0.00,,,0.00,WUHU216HW,2013-01-24 22:53:00,
2013-01-24 14:58:00,44.8,40.0,30.02,SSW,203,0.2,0.4,83,0.00,,,0.00,WUHU216HW,2013-01-24 22:58:00,
2013-01-24 15:03:00,44.8,40.0,30.02,SSW,203,0.0,0.2,83,0.00,,,0.00,WUHU216HW,2013-01-24 23:03:00,
2013-01-24 15:08:00,44.8,39.3,30.02,SW,225,0.0,1.6,81,0.00,,,0.00,WUHU216HW,2013-01-24 23:08:00,
2013-01-24 15:13:00,44.8,39.7,30.02,SW,225,0.4,1.6,82,0.00,,,0.00,WUHU216HW,2013-01-24 23:13:00,
2013-01-24 15:18:00,44.6,39.2,30.02,WSW,248,0.0,1.1,81,0.00,,,0.00,WUHU216HW,2013-01-24 23:18:00,
2013-01-24 15:23:00,44.8,39.3,30.01,SW,225,1.1,1.1,81,0.00,,,0.00,WUHU216HW,2013-01-24 23:23:00,
2013-01-24 15:28:00,44.6,39.2,30.02,WSW,248,0.0,1.1,81,0.00,,,0.00,WUHU216HW,2013-01-24 23:28:00,
2013-01-24 15:33:00,44.6,39.2,30.02,WSW,248,0.0,1.6,81,0.00,,,0.00,WUHU216HW,2013-01-24 23:33:00,
2013-01-24 15:38:00,44.6,39.2,30.02,SW,225,0.0,1.6,81,0.00,,,0.00,WUHU216HW,2013-01-24 23:38:00,
2013-01-24 15:43:00,44.6,38.9,30.02,WSW,248,0.2,0.7,80,0.00,,,0.00,WUHU216HW,2013-01-24 23:43:00,
2013-01-24 15:48:00,44.6,39.2,30.02,SSW,203,0.2,1.1,81,0.00,,,0.00,WUHU216HW,2013-01-24 23:48:00,
2013-01-24 15:53:00,44.6,39.2,30.02,WNW,293,0.0,1.1,81,0.00,,,0.00,WUHU216HW,2013-01-24 23:53:00,
2013-01-24 15:58:00,44.5,39.0,30.02,SW,225,0.4,1.1,81,0.00,,,0.00,WUHU216HW,2013-01-24 23:58:00,
2013-01-24 16:03:00,44.5,39.0,30.03,SW,225,0.0,1.1,81,0.00,,,0.00,WUHU216HW,2013-01-25 00:03:00,
2013-01-24 16:08:00,44.5,38.7,30.02,SSE,158,0.4,1.6,80,0.00,,,0.00,WUHU216HW,2013-01-25 00:08:00,
2013-01-24 16:13:00,44.5,39.0,30.03,WSW,248,1.3,1.6,81,0.00,,,0.00,WUHU216HW,2013-01-25 00:13:00,
2013-01-24 16:18:00,44.5,39.0,30.03,WSW,248,1.3,1.6,81,0.00,,,0.00,WUHU216HW,2013-01-25 00:18:00,
2013-01-24 16:23:00,44.5,39.0,30.02,SSE,158,0.7,2.2,81,0.00,,,0.00,WUHU216HW,2013-01-25 00:23:00,
2013-01-24 16:28:00,44.3,38.8,30.02,West,270,1.8,2.2,81,0.00,,,0.00,WUHU216HW,2013-01-25 00:28:00,
2013-01-24 16:33:00,44.3,38.8,30.02,West,270,0.0,1.8,81,0.00,,,0.00,WUHU216HW,2013-01-25 00:33:00,
2013-01-24 16:38:00,44.1,39.0,30.03,SW,225,1.3,1.3,82,0.00,,,0.00,WUHU216HW,2013-01-25 00:38:00,
2013-01-24 16:43:00,43.9,39.1,30.03,West,270,1.1,1.3,83,0.00,,,0.00,WUHU216HW,2013-01-25 00:43:00,
2013-01-24 16:48:00,43.7,38.9,30.03,WNW,293,0.2,1.3,83,0.00,,,0.00,WUHU216HW,2013-01-25 00:48:00,
2013-01-24 16:53:00,43.6,39.1,30.03,NW,315,0.2,1.1,84,0.00,,,0.00,WUHU216HW,2013-01-25 00:53:00,
2013-01-24 16:58:00,43.6,39.3,30.03,ENE,68,0.0,1.1,85,0.01,,,0.00,WUHU216HW,2013-01-25 00:58:00,
2013-01-24 17:03:00,43.4,39.2,30.04,ENE,68,0.0,0.4,85,0.01,,,0.00,WUHU216HW,2013-01-25 01:03:00,
2013-01-24 17:08:00,43.2,39.2,30.04,ENE,68,0.0,0.0,86,0.01,,,0.00,WUHU216HW,2013-01-25 01:08:00,
2013-01-24 17:13:00,43.2,39.0,30.05,ENE,68,0.0,0.0,85,0.01,,,0.00,WUHU216HW,2013-01-25 01:13:00,
2013-01-24 17:18:00,43.0,39.1,30.05,WSW,248,0.4,0.9,86,0.01,,,0.00,WUHU216HW,2013-01-25 01:18:00,
2013-01-24 17:23:00,42.8,38.9,30.05,NW,315,0.0,0.9,86,0.02,,,0.00,WUHU216HW,2013-01-25 01:23:00,
2013-01-24 17:28:00,42.8,39.3,30.04,NW,315,0.0,0.9,87,0.02,,,0.00,WUHU216HW,2013-01-25 01:28:00,
2013-01-24 17:33:00,42.8,39.3,30.04,SW,225,0.0,1.1,87,0.02,,,0.00,WUHU216HW,2013-01-25 01:33:00,
2013-01-24 17:38:00,42.8,39.3,30.03,SW,225,0.0,1.1,87,0.03,,,0.00,WUHU216HW,2013-01-25 01:38:00,
2013-01-24 17:43:00,42.8,39.3,30.03,ESE,113,0.0,0.9,87,0.03,,,0.00,WUHU216HW,2013-01-25 01:43:00,
2013-01-24 17:48:00,42.7,39.1,30.04,ESE,113,0.0,0.9,87,0.04,,,0.00,WUHU216HW,2013-01-25 01:48:00,
2013-01-24 17:53:00,42.7,39.3,30.04,ESE,113,0.0,0.7,88,0.04,,,0.00,WUHU216HW,2013-01-25 01:53:00,
2013-01-24 17:58:00,42.5,39.2,30.04,ESE,113,0.0,0.0,88,0.04,,,0.00,WUHU216HW,2013-01-25 01:58:00,
2013-01-24 18:03:00,42.5,39.5,30.05,ESE,113,0.0,0.0,89,0.05,,,0.00,WUHU216HW,2013-01-25 02:03:00,
2013-01-24 18:08:00,42.5,39.5,30.04,ESE,113,0.0,0.0,89,0.05,,,0.00,WUHU216HW,2013-01-25 02:08:00,
2013-01-24 18:13:00,42.3,39.3,30.04,East,90,0.9,0.9,89,0.06,,,0.00,WUHU216HW,2013-01-25 02:13:00,
2013-01-24 18:18:00,42.1,39.4,30.04,East,90,1.6,1.6,90,0.06,,,0.00,WUHU216HW,2013-01-25 02:18:00,
2013-01-24 18:23:00,42.1,39.4,30.04,ESE,113,1.8,1.8,90,0.06,,,0.00,WUHU216HW,2013-01-25 02:23:00,
2013-01-24 18:28:00,41.9,39.5,30.04,SE,135,0.7,1.8,91,0.06,,,0.00,WUHU216HW,2013-01-25 02:28:00,
2013-01-24 18:33:00,41.9,39.8,30.04,ESE,113,0.4,2.5,92,0.05,,,0.00,WUHU216HW,2013-01-25 02:33:00,
2013-01-24 18:38:00,41.8,39.6,30.04,East,90,1.3,2.5,92,0.05,,,0.00,WUHU216HW,2013-01-25 02:38:00,
2013-01-24 18:43:00,41.8,39.6,30.03,SE,135,0.0,1.8,92,0.04,,,0.00,WUHU216HW,2013-01-25 02:43:00,
2013-01-24 18:48:00,41.8,39.6,30.03,ESE,113,0.2,1.8,92,0.05,,,0.00,WUHU216HW,2013-01-25 02:48:00,
2013-01-24 18:53:00,41.8,39.6,30.04,ENE,68,1.1,1.3,92,0.04,,,0.00,WUHU216HW,2013-01-25 02:53:00,
2013-01-24 18:58:00,41.8,39.6,30.04,ESE,113,1.1,1.6,92,0.04,,,0.00,WUHU216HW,2013-01-25 02:58:00,
2013-01-24 19:03:00,41.8,39.9,30.04,ESE,113,0.4,1.6,93,0.03,,,0.00,WUHU216HW,2013-01-25 03:03:00,
2013-01-24 19:08:00,41.8,39.9,30.03,NW,315,1.1,2.7,93,0.03,,,0.00,WUHU216HW,2013-01-25 03:08:00,
2013-01-24 19:13:00,41.8,39.9,30.04,East,90,3.4,3.4,93,0.02,,,0.00,WUHU216HW,2013-01-25 03:13:00,
2013-01-24 19:18:00,41.8,39.9,30.03,SE,135,0.0,3.4,93,0.03,,,0.00,WUHU216HW,2013-01-25 03:18:00,
2013-01-24 19:23:00,41.9,40.1,30.03,ESE,113,0.0,3.4,93,0.02,,,0.00,WUHU216HW,2013-01-25 03:23:00,
2013-01-24 19:28:00,41.9,40.1,30.03,ESE,113,0.4,1.3,93,0.02,,,0.00,WUHU216HW,2013-01-25 03:28:00,
2013-01-24 19:33:00,42.1,40.5,30.03,ESE,113,1.1,1.1,94,0.03,,,0.00,WUHU216HW,2013-01-25 03:33:00,
2013-01-24 19:38:00,42.1,40.5,30.03,ESE,113,0.7,1.1,94,0.03,,,0.00,WUHU216HW,2013-01-25 03:38:00,
2013-01-24 19:43:00,42.1,40.5,30.03,ESE,113,0.4,1.8,94,0.02,,,0.00,WUHU216HW,2013-01-25 03:43:00,
2013-01-24 19:48:00,42.1,40.5,30.03,ESE,113,0.0,1.8,94,0.02,,,0.00,WUHU216HW,2013-01-25 03:48:00,
2013-01-24 19:53:00,42.1,40.5,30.03,SSE,158,0.2,1.1,94,0.02,,,0.00,WUHU216HW,2013-01-25 03:53:00,
2013-01-24 19:58:00,42.1,40.5,30.03,SE,135,0.4,1.1,94,0.02,,,0.00,WUHU216HW,2013-01-25 03:58:00,
2013-01-24 20:03:00,42.1,40.5,30.03,SSE,158,0.4,1.1,94,0.02,,,0.00,WUHU216HW,2013-01-25 04:03:00,
2013-01-24 20:08:00,42.1,40.5,30.03,ESE,113,0.2,1.1,94,0.02,,,0.00,WUHU216HW,2013-01-25 04:08:00,
2013-01-24 20:13:00,42.1,40.5,30.02,ESE,113,0.0,1.1,94,0.02,,,0.00,WUHU216HW,2013-01-25 04:13:00,
2013-01-24 20:18:00,42.1,40.5,30.02,South,180,0.4,1.1,94,0.02,,,0.00,WUHU216HW,2013-01-25 04:18:00,
2013-01-24 20:23:00,42.1,40.5,30.02,South,180,0.4,1.1,94,0.02,,,0.00,WUHU216HW,2013-01-25 04:23:00,
2013-01-24 20:28:00,42.1,40.5,30.02,SE,135,0.9,1.1,94,0.01,,,0.00,WUHU216HW,2013-01-25 04:28:00,
2013-01-24 20:33:00,42.1,40.5,30.02,ESE,113,0.4,1.3,94,0.01,,,0.00,WUHU216HW,2013-01-25 04:33:00,
2013-01-24 20:38:00,42.1,40.5,30.02,South,180,1.1,1.3,94,0.01,,,0.00,WUHU216HW,2013-01-25 04:38:00,
2013-01-24 20:43:00,42.1,40.5,30.02,SE,135,0.4,1.1,94,0.01,,,0.00,WUHU216HW,2013-01-25 04:43:00,
2013-01-24 20:48:00,42.1,40.5,30.02,SSE,158,0.0,1.1,94,0.01,,,0.00,WUHU216HW,2013-01-25 04:48:00,
2013-01-24 20:53:00,42.1,40.5,30.02,SSE,158,0.7,1.1,94,0.01,,,0.00,WUHU216HW,2013-01-25 04:53:00,
2013-01-24 20:58:00,42.1,40.5,30.02,SW,225,0.4,1.1,94,0.01,,,0.00,WUHU216HW,2013-01-25 04:58:00,
2013-01-24 21:00:00,42.1,40.5,30.02,South,180,0.0,1.1,94,0.01,,,0.00,WUHU216HW,2013-01-25 05:00:00,
2013-01-24 21:01:00,42.1,40.5,30.02,South,180,0.4,1.1,94,0.01,,,0.00,WUHU216HW,2013-01-25 05:01:00,
2013-01-24 21:03:00,42.1,40.5,30.02,South,180,0.2,1.1,94,0.01,,,0.00,WUHU216HW,2013-01-25 05:03:00,
2013-01-24 21:08:00,42.1,40.5,30.02,SSW,203,0.0,1.1,94,0.01,,,0.00,WUHU216HW,2013-01-25 05:08:00,
2013-01-24 21:13:00,42.1,40.5,30.02,SW,225,0.7,1.1,94,0.00,,,0.00,WUHU216HW,2013-01-25 05:13:00,
2013-01-24 21:18:00,42.1,40.5,30.02,SW,225,0.0,1.1,94,0.00,,,0.00,WUHU216HW,2013-01-25 05:18:00,
2013-01-24 21:23:00,42.1,40.5,30.02,SSW,203,0.2,0.2,94,0.00,,,0.00,WUHU216HW,2013-01-25 05:23:00,
2013-01-24 21:28:00,42.1,40.5,30.02,SSE,158,0.0,0.2,94,0.00,,,0.00,WUHU216HW,2013-01-25 05:28:00,
2013-01-24 21:33:00,42.1,40.5,30.02,SSW,203,0.4,1.1,94,0.00,,,0.00,WUHU216HW,2013-01-25 05:33:00,
2013-01-24 21:38:00,42.1,40.5,30.02,SSW,203,0.0,1.1,94,0.00,,,0.00,WUHU216HW,2013-01-25 05:38:00,
2013-01-24 21:43:00,42.1,40.5,30.02,South,180,0.0,0.4,94,0.00,,,0.00,WUHU216HW,2013-01-25 05:43:00,
2013-01-24 21:48:00,42.1,40.5,30.01,SW,225,0.4,0.4,94,0.00,,,0.00,WUHU216HW,2013-01-25 05:48:00,
2013-01-24 21:53:00,42.1,40.5,30.01,South,180,0.4,1.3,94,0.00,,,0.00,WUHU216HW,2013-01-25 05:53:00,
2013-01-24 21:58:00,42.1,40.5,30.01,SSE,158,0.0,1.3,94,0.00,,,0.00,WUHU216HW,2013-01-25 05:58:00,
2013-01-24 22:03:00,42.1,40.5,30.01,SW,225,0.2,0.2,94,0.00,,,0.00,WUHU216HW,2013-01-25 06:03:00,
2013-01-24 22:08:00,42.1,40.5,30.01,SW,225,0.0,0.2,94,0.00,,,0.00,WUHU216HW,2013-01-25 06:08:00,
2013-01-24 22:13:00,42.1,40.5,30.01,WSW,248,0.0,0.2,94,0.00,,,0.00,WUHU216HW,2013-01-25 06:13:00,
2013-01-24 22:18:00,42.1,40.5,30.01,WSW,248,0.0,0.0,94,0.00,,,0.00,WUHU216HW,2013-01-25 06:18:00,
2013-01-24 22:23:00,42.1,40.5,30.00,WSW,248,0.0,0.0,94,0.00,,,0.00,WUHU216HW,2013-01-25 06:23:00,
2013-01-24 22:28:00,42.1,40.5,30.01,WSW,248,0.0,0.0,94,0.00,,,0.00,WUHU216HW,2013-01-25 06:28:00,
2013-01-24 22:33:00,42.1,40.5,30.01,South,180,0.0,0.7,94,0.00,,,0.00,WUHU216HW,2013-01-25 06:33:00,
2013-01-24 22:38:00,42.1,40.5,30.01,South,180,0.4,0.7,94,0.00,,,0.00,WUHU216HW,2013-01-25 06:38:00,
2013-01-24 22:43:00,42.1,40.5,30.01,South,180,0.0,0.4,94,0.00,,,0.00,WUHU216HW,2013-01-25 06:43:00,
2013-01-24 22:48:00,42.1,40.5,30.01,South,180,0.0,0.2,94,0.00,,,0.00,WUHU216HW,2013-01-25 06:48:00,
2013-01-24 22:53:00,42.1,40.5,30.00,SW,225,0.0,0.0,94,0.00,,,0.00,WUHU216HW,2013-01-25 06:53:00,
2013-01-24 22:58:00,42.1,40.5,30.00,SW,225,0.0,0.0,94,0.00,,,0.00,WUHU216HW,2013-01-25 06:58:00,
2013-01-24 23:03:00,42.1,40.5,30.00,SW,225,0.0,0.0,94,0.00,,,0.00,WUHU216HW,2013-01-25 07:03:00,
2013-01-24 23:08:00,42.1,40.5,30.00,SW,225,0.0,0.0,94,0.00,,,0.00,WUHU216HW,2013-01-25 07:08:00,
2013-01-24 23:13:00,42.1,40.8,30.00,SW,225,0.0,0.2,95,0.00,,,0.00,WUHU216HW,2013-01-25 07:13:00,
2013-01-24 23:18:00,42.1,40.8,30.00,SW,225,0.0,0.2,95,0.00,,,0.00,WUHU216HW,2013-01-25 07:18:00,
2013-01-24 23:23:00,42.1,40.8,30.00,SW,225,0.0,0.2,95,0.01,,,0.00,WUHU216HW,2013-01-25 07:23:00,
2013-01-24 23:28:00,42.1,40.8,30.01,SW,225,0.0,0.0,95,0.01,,,0.00,WUHU216HW,2013-01-25 07:28:00,
2013-01-24 23:33:00,42.1,40.8,30.01,SW,225,0.0,0.0,95,0.01,,,0.00,WUHU216HW,2013-01-25 07:33:00,
2013-01-24 23:38:00,42.1,40.8,30.01,SW,225,0.0,0.0,95,0.01,,,0.00,WUHU216HW,2013-01-25 07:38:00,
2013-01-24 23:43:00,42.1,40.8,30.01,SW,225,0.0,0.0,95,0.01,,,0.00,WUHU216HW,2013-01-25 07:43:00,
2013-01-24 23:48:00,42.1,40.8,30.01,ESE,113,0.0,0.2,95,0.02,,,0.00,WUHU216HW,2013-01-25 07:48:00,
2013-01-24 23:53:00,42.1,40.8,30.01,ESE,113,0.0,0.7,95,0.02,,,0.00,WUHU216HW,2013-01-25 07:53:00,
2013-01-24 23:58:00,42.1,40.8,30.01,ESE,113,0.0,0.7,95,0.02,,,0.00,WUHU216HW,2013-01-25 07:58:00,